Location: Asheville, NC
(35.6000°N, 82.5500°W)
Time: 14:20:55
(UTC-04:00)

Vanguard 1 Rocket - Pass Details

Date: 08 December 2017
Orbit: 652 x 4225 km, 34.3° (Epoch: 15 July)

Event Time Altitude Azimuth Distance (km) Brightness Sun altitude
Rises 20:45:47 0° 267° (W) 5,686 12.3 -41.6°
Reaches altitude 10° 20:48:46 10° 267° (W) 5,041 11.8 -42.3°
Maximum altitude 21:05:30 87° 181° (S) 3,600 10.0 -45.7°
Enters shadow 21:08:06 77° 106° (ESE) 3,792 10.0 -46.2°
